• în Republica Moldova
  • Lista ţărilor
  • Pe 7 zile
  • Temperatura apei
  • Hartă satelitară
  • Meteo pe hartă
  • Widget-uri
  • user-avatar
    Intrare

    Meteo pe oră la Eisenstadt

    Astăzi, 25 Iunie, Duminică

    Timp Temperatura Precipitaţii Vânt Presiune Umiditate
    00:00 +22°C° 0,5 mm 1 m/s 721 mmHg 87%
    01:00 +21°C° 0 mm 2 m/s 721 mmHg 87%
    02:00 +20°C° 0,7 mm 2 m/s 721 mmHg 88%
    03:00 +20°C° 0,7 mm 2 m/s 721 mmHg 89%
    04:00 +19°C° 0,7 mm 2 m/s 721 mmHg 90%
    05:00 +21°C° 0,3 mm 2 m/s 721 mmHg 86%
    06:00 +23°C° 0,3 mm 2 m/s 721 mmHg 82%
    07:00 +24°C° 0 mm 1 m/s 722 mmHg 74%
    08:00 +25°C° 0,4 mm 2 m/s 722 mmHg 68%
    09:00 +26°C° 0,4 mm 2 m/s 722 mmHg 62%
    10:00 +27°C° 0,4 mm 2 m/s 722 mmHg 57%
    11:00 +27°C° 1,4 mm 2 m/s 721 mmHg 59%
    12:00 +27°C° 1,4 mm 1 m/s 721 mmHg 62%
    13:00 +27°C° 1,4 mm 1 m/s 721 mmHg 64%
    14:00 +26°C° 1,7 mm 2 m/s 721 mmHg 71%
    15:00 +25°C° 1,7 mm 2 m/s 720 mmHg 77%
    16:00 +23°C° 1,7 mm 2 m/s 720 mmHg 84%
    17:00 +21°C° 2,4 mm 3 m/s 720 mmHg 86%
    18:00 +19°C° 2,4 mm 4 m/s 720 mmHg 89%
    19:00 +17°C° 2,4 mm 5 m/s 720 mmHg 91%
    20:00 +18°C° 1 mm 4 m/s 720 mmHg 91%
    21:00 +17°C° 1 mm 4 m/s 721 mmHg 91%
    22:00 +17°C° 1 mm 3 m/s 721 mmHg 90%
    23:00 +17°C° 0 mm 3 m/s 721 mmHg 90%

    Mâine, 26 Iunie, Luni

    Timp Temperatura Precipitaţii Vânt Presiune Umiditate
    00:00 +16°C° 0 mm 3 m/s 721 mmHg 90%
    01:00 +16°C° 0 mm 2 m/s 721 mmHg 90%
    02:00 +16°C° 0 mm 2 m/s 721 mmHg 89%
    03:00 +16°C° 0 mm 2 m/s 721 mmHg 89%
    04:00 +16°C° 0 mm 2 m/s 721 mmHg 88%
    05:00 +17°C° 0 mm 3 m/s 721 mmHg 84%
    06:00 +18°C° 0 mm 3 m/s 721 mmHg 80%
    07:00 +20°C° 0 mm 3 m/s 721 mmHg 76%
    08:00 +21°C° 0 mm 3 m/s 722 mmHg 69%
    09:00 +24°C° 0 mm 3 m/s 722 mmHg 62%
    10:00 +26°C° 0 mm 3 m/s 722 mmHg 56%
    11:00 +26°C° 0 mm 3 m/s 722 mmHg 54%
    12:00 +27°C° 0 mm 3 m/s 722 mmHg 53%
    13:00 +27°C° 0 mm 3 m/s 722 mmHg 52%
    14:00 +27°C° 0,2 mm 3 m/s 721 mmHg 53%
    15:00 +28°C° 0,2 mm 3 m/s 721 mmHg 53%
    16:00 +28°C° 0,2 mm 2 m/s 721 mmHg 54%
    17:00 +27°C° 0,1 mm 2 m/s 721 mmHg 61%
    18:00 +25°C° 0,1 mm 2 m/s 721 mmHg 69%
    19:00 +24°C° 0,1 mm 2 m/s 721 mmHg 76%
    20:00 +21°C° 0 mm 2 m/s 721 mmHg 80%
    21:00 +20°C° 0 mm 2 m/s 721 mmHg 84%
    22:00 +18°C° 0 mm 2 m/s 721 mmHg 88%
    23:00 +18°C° 0 mm 1 m/s 721 mmHg 89%

    Poimâine, 27 Iunie, Marţi

    Timp Temperatura Precipitaţii Vânt Presiune Umiditate
    00:00 +18°C° 0 mm 1 m/s 720 mmHg 90%
    01:00 +16°C° 0 mm 1 m/s 720 mmHg 91%
    02:00 +16°C° 0 mm 1 m/s 720 mmHg 92%
    03:00 +16°C° 0 mm 1 m/s 720 mmHg 92%
    04:00 +16°C° 0 mm 1 m/s 720 mmHg 92%
    05:00 +18°C° 0 mm 2 m/s 720 mmHg 87%
    06:00 +20°C° 0 mm 2 m/s 720 mmHg 81%
    07:00 +23°C° 0 mm 2 m/s 720 mmHg 76%
    08:00 +24°C° 0 mm 3 m/s 720 mmHg 70%
    09:00 +26°C° 0 mm 4 m/s 720 mmHg 63%
    10:00 +27°C° 0 mm 5 m/s 720 mmHg 57%
    11:00 +28°C° 0 mm 5 m/s 720 mmHg 55%
    12:00 +29°C° 0 mm 5 m/s 719 mmHg 53%
    13:00 +29°C° 0 mm 6 m/s 719 mmHg 51%
    14:00 +29°C° 0,2 mm 6 m/s 719 mmHg 54%
    15:00 +28°C° 0,2 mm 5 m/s 718 mmHg 58%
    16:00 +28°C° 0,2 mm 5 m/s 718 mmHg 61%
    17:00 +26°C° 0 mm 4 m/s 718 mmHg 67%
    18:00 +25°C° 0 mm 3 m/s 717 mmHg 72%
    19:00 +24°C° 0 mm 2 m/s 717 mmHg 78%
    20:00 +23°C° 0 mm 2 m/s 717 mmHg 81%
    21:00 +21°C° 0 mm 2 m/s 717 mmHg 85%
    22:00 +19°C° 0 mm 2 m/s 717 mmHg 88%
    23:00 +19°C° 0,1 mm 3 m/s 717 mmHg 89%

    28 Iunie, Miercuri

    Timp Temperatura Precipitaţii Vânt Presiune Umiditate
    00:00 +19°C° 0,1 mm 3 m/s 716 mmHg 90%
    01:00 +19°C° 0,1 mm 3 m/s 716 mmHg 91%
    02:00 +18°C° 0 mm 3 m/s 716 mmHg 92%
    03:00 +18°C° 0 mm 3 m/s 716 mmHg 93%
    04:00 +18°C° 0 mm 2 m/s 715 mmHg 93%
    05:00 +19°C° 0 mm 3 m/s 715 mmHg 88%
    06:00 +21°C° 0 mm 3 m/s 715 mmHg 82%
    07:00 +24°C° 0 mm 3 m/s 715 mmHg 76%
    08:00 +25°C° 0 mm 4 m/s 715 mmHg 69%
    09:00 +27°C° 0 mm 5 m/s 715 mmHg 62%
    10:00 +29°C° 0 mm 6 m/s 715 mmHg 55%
    11:00 +30°C° 0 mm 7 m/s 715 mmHg 53%
    12:00 +30°C° 0 mm 7 m/s 714 mmHg 51%
    13:00 +32°C° 0 mm 8 m/s 714 mmHg 49%
    14:00 +32°C° 0 mm 8 m/s 713 mmHg 48%
    15:00 +32°C° 0 mm 8 m/s 713 mmHg 47%
    16:00 +33°C° 0 mm 8 m/s 713 mmHg 46%
    17:00 +31°C° 0 mm 8 m/s 713 mmHg 50%
    18:00 +29°C° 0 mm 7 m/s 712 mmHg 54%
    19:00 +27°C° 0 mm 7 m/s 712 mmHg 58%
    20:00 +26°C° 0 mm 7 m/s 712 mmHg 61%
    21:00 +24°C° 0 mm 6 m/s 712 mmHg 63%
    22:00 +23°C° 0 mm 6 m/s 712 mmHg 65%
    23:00 +22°C° 0 mm 6 m/s 712 mmHg 67%

    29 Iunie, Joi

    Timp Temperatura Precipitaţii Vânt Presiune Umiditate
    00:00 +22°C° 0 mm 5 m/s 712 mmHg 69%
    01:00 +21°C° 0 mm 5 m/s 711 mmHg 71%
    02:00 +21°C° 0 mm 5 m/s 711 mmHg 73%
    03:00 +20°C° 0 mm 6 m/s 711 mmHg 75%
    04:00 +20°C° 0 mm 6 m/s 711 mmHg 76%
    05:00 +21°C° 0 mm 6 m/s 711 mmHg 72%
    06:00 +22°C° 0 mm 7 m/s 711 mmHg 68%
    07:00 +23°C° 0 mm 7 m/s 712 mmHg 64%
    08:00 +24°C° 0 mm 8 m/s 712 mmHg 59%
    09:00 +26°C° 0 mm 8 m/s 712 mmHg 53%
    10:00 +27°C° 0 mm 8 m/s 713 mmHg 47%
    11:00 +27°C° 0,4 mm 8 m/s 713 mmHg 49%
    12:00 +27°C° 0,4 mm 8 m/s 713 mmHg 51%
    13:00 +27°C° 0,4 mm 8 m/s 713 mmHg 53%
    14:00 +26°C° 0,4 mm 8 m/s 714 mmHg 53%
    15:00 +26°C° 0,4 mm 7 m/s 714 mmHg 54%
    16:00 +26°C° 0,4 mm 7 m/s 714 mmHg 54%
    17:00 +24°C° 0,3 mm 6 m/s 714 mmHg 59%
    18:00 +22°C° 0,3 mm 5 m/s 714 mmHg 63%
    19:00 +21°C° 0,3 mm 4 m/s 714 mmHg 68%
    20:00 +19°C° 0 mm 3 m/s 715 mmHg 72%
    21:00 +18°C° 0 mm 3 m/s 715 mmHg 75%
    22:00 +16°C° 0 mm 3 m/s 715 mmHg 79%
    23:00 +15°C° 0 mm 2 m/s 716 mmHg 82%

    30 Iunie, Vineri

    Timp Temperatura Precipitaţii Vânt Presiune Umiditate
    00:00 +15°C° 0 mm 2 m/s 716 mmHg 84%
    01:00 +14°C° 0 mm 2 m/s 716 mmHg 86%
    02:00 +13°C° 0 mm 2 m/s 717 mmHg 87%
    03:00 +13°C° 0 mm 2 m/s 717 mmHg 87%
    04:00 +12°C° 0 mm 1 m/s 717 mmHg 87%
    05:00 +14°C° 0 mm 1 m/s 718 mmHg 82%
    06:00 +16°C° 0 mm 1 m/s 718 mmHg 77%
    07:00 +17°C° 0 mm 2 m/s 719 mmHg 71%
    08:00 +19°C° 0 mm 2 m/s 719 mmHg 66%
    09:00 +21°C° 0 mm 2 m/s 719 mmHg 61%
    10:00 +23°C° 0 mm 2 m/s 719 mmHg 56%
    11:00 +24°C° 0,2 mm 3 m/s 719 mmHg 54%
    12:00 +26°C° 0,2 mm 4 m/s 719 mmHg 52%
    13:00 +27°C° 0,2 mm 5 m/s 719 mmHg 49%
    14:00 +26°C° 0,1 mm 6 m/s 719 mmHg 48%
    15:00 +26°C° 0,1 mm 6 m/s 718 mmHg 47%
    16:00 +26°C° 0,1 mm 6 m/s 718 mmHg 45%
    17:00 +24°C° 0 mm 6 m/s 718 mmHg 49%
    18:00 +23°C° 0 mm 5 m/s 718 mmHg 53%
    19:00 +21°C° 0 mm 5 m/s 718 mmHg 57%
    20:00 +20°C° 0 mm 5 m/s 718 mmHg 59%
    21:00 +19°C° 0 mm 4 m/s 718 mmHg 61%
    22:00 +18°C° 0 mm 4 m/s 718 mmHg 63%
    23:00 +18°C° 0 mm 4 m/s 718 mmHg 66%
    Arată mai mult